RYR8512 GMMD-LIME

Flight info

Callsign RYR8512
Flight time 2h 27m
Altitude 37000
Route PIMOS N869 GALTO UB11 TTN/N0444F380
Aircraft B38M/M-SDE1FGHILORVWXY/HB1

Departure

Time 2026-05-04 16:47
Airport Beni Mellal Airport (GMMD)

Arrival

Time 2026-05-04 19:14
Airport Il Caravaggio International Airport (LIME)
Time Latitude Longitude Altitude Speed Heading
2026-05-04 16:29 32.39653 -6.32714 1686 ft 1 kts 315°
2026-05-04 16:42 32.39612 -6.32669 1686 ft 0 kts 315°
2026-05-04 16:43 32.39615 -6.32685 1687 ft 6 kts 273°
2026-05-04 16:43 32.39567 -6.32716 1686 ft 12 kts 170°
2026-05-04 16:44 32.39441 -6.32487 1688 ft 0 kts 44°
2026-05-04 16:46 32.39446 -6.32482 1689 ft 1 kts 44°
2026-05-04 16:46 32.39765 -6.32107 1691 ft 98 kts 45°
2026-05-04 16:47 32.41316 -6.30228 1969 ft 200 kts 44°
2026-05-04 16:47 32.43673 -6.28263 3731 ft 224 kts
2026-05-04 16:48 32.48817 -6.28332 6038 ft 272 kts 19°
2026-05-04 16:48 32.50582 -6.27531 7024 ft 274 kts 17°
2026-05-04 16:49 32.54311 -6.26068 8665 ft 290 kts 15°
2026-05-04 16:49 32.58257 -6.24599 10319 ft 305 kts 15°
2026-05-04 16:50 32.62555 -6.23030 11329 ft 338 kts 15°
2026-05-04 16:50 32.67117 -6.21371 12781 ft 350 kts 14°
2026-05-04 16:51 32.71880 -6.19789 14169 ft 360 kts 10°
2026-05-04 16:51 32.74337 -6.19084 14878 ft 363 kts 10°
2026-05-04 16:51 32.79313 -6.17628 16231 ft 371 kts 10°
2026-05-04 16:52 32.84338 -6.16143 17552 ft 377 kts
2026-05-04 16:52 32.86908 -6.15382 18194 ft 381 kts
2026-05-04 16:53 32.92100 -6.13844 19306 ft 387 kts
2026-05-04 16:53 33.00014 -6.11496 20881 ft 397 kts
2026-05-04 16:54 33.02707 -6.10697 21413 ft 401 kts
2026-05-04 16:55 33.13717 -6.07421 23505 ft 414 kts
2026-05-04 16:55 33.19353 -6.05740 24410 ft 419 kts
2026-05-04 16:56 33.25012 -6.04051 25302 ft 424 kts
2026-05-04 16:56 33.33664 -6.01463 26575 ft 430 kts
2026-05-04 16:57 33.36580 -6.00590 26979 ft 432 kts
2026-05-04 16:57 33.42459 -5.98828 27777 ft 437 kts
2026-05-04 16:58 33.51359 -5.96156 28915 ft 444 kts
2026-05-04 16:58 33.54374 -5.95249 29301 ft 447 kts
2026-05-04 16:59 33.60418 -5.93430 30098 ft 450 kts
2026-05-04 17:00 33.72682 -5.89730 31198 ft 459 kts
2026-05-04 17:00 33.82031 -5.86903 32004 ft 467 kts
2026-05-04 17:01 33.88383 -5.84977 32519 ft 472 kts
2026-05-04 17:01 33.94757 -5.83043 33044 ft 477 kts
2026-05-04 17:02 34.01215 -5.81080 33554 ft 481 kts
2026-05-04 17:02 34.07722 -5.79099 34199 ft 482 kts
2026-05-04 17:03 34.10980 -5.78106 34506 ft 483 kts
2026-05-04 17:03 34.14249 -5.77109 34762 ft 483 kts
2026-05-04 17:03 34.20720 -5.75132 35350 ft 482 kts
2026-05-04 17:04 34.27225 -5.73143 35913 ft 481 kts
2026-05-04 17:04 34.33736 -5.71148 36424 ft 481 kts
2026-05-04 17:05 34.40176 -5.69171 36952 ft 480 kts
2026-05-04 17:05 34.46679 -5.67172 37076 ft 480 kts
2026-05-04 17:06 34.56319 -5.64203 37075 ft 478 kts
2026-05-04 17:07 34.64911 -5.61551 37070 ft 478 kts
2026-05-04 17:07 34.72450 -5.59219 37065 ft 478 kts
2026-05-04 17:08 34.82091 -5.56230 37060 ft 476 kts
2026-05-04 17:09 34.88540 -5.54228 37087 ft 477 kts
2026-05-04 17:09 34.94925 -5.52241 37073 ft 477 kts
2026-05-04 17:10 35.10784 -5.47293 37039 ft 458 kts
2026-05-04 17:11 35.16923 -5.45373 37035 ft 457 kts
2026-05-04 17:12 35.26125 -5.42489 36993 ft 456 kts
2026-05-04 17:13 35.41531 -5.37644 37078 ft 457 kts
2026-05-04 17:14 35.53739 -5.33791 36982 ft 451 kts
2026-05-04 17:14 35.59825 -5.31647 36989 ft 468 kts 17°
2026-05-04 17:15 35.62693 -5.29624 37048 ft 476 kts 22°
2026-05-04 17:16 35.74075 -5.21258 37025 ft 478 kts 22°
2026-05-04 17:17 35.85405 -5.12693 37020 ft 480 kts 24°
2026-05-04 17:18 35.96650 -5.03851 37031 ft 479 kts 24°
2026-05-04 17:19 36.07885 -4.94998 37015 ft 480 kts 24°
2026-05-04 17:20 36.18227 -4.86857 37003 ft 479 kts 24°
2026-05-04 17:20 36.23736 -4.82101 36975 ft 494 kts 40°
2026-05-04 17:20 36.25861 -4.78754 36993 ft 506 kts 54°
2026-05-04 17:21 36.30075 -4.71779 37024 ft 506 kts 43°
2026-05-04 17:21 36.34877 -4.65278 37043 ft 514 kts 41°
2026-05-04 17:22 36.38136 -4.61017 37348 ft 513 kts 40°
2026-05-04 17:22 36.39777 -4.58890 37503 ft 513 kts 40°
2026-05-04 17:23 36.47180 -4.49308 38003 ft 512 kts 40°
2026-05-04 17:23 36.49653 -4.46101 37956 ft 511 kts 40°
2026-05-04 17:24 36.57005 -4.36553 37967 ft 511 kts 40°
2026-05-04 17:25 36.66834 -4.23743 37971 ft 511 kts 40°
2026-05-04 17:26 36.76645 -4.10908 37970 ft 513 kts 40°
2026-05-04 17:27 36.88906 -3.94791 37989 ft 512 kts 40°
2026-05-04 17:28 36.98703 -3.81857 38010 ft 513 kts 41°
2026-05-04 17:29 37.13425 -3.62323 37996 ft 515 kts 41°
2026-05-04 17:31 37.25679 -3.45974 38001 ft 514 kts 41°
2026-05-04 17:32 37.37912 -3.29570 37969 ft 515 kts 41°
2026-05-04 17:33 37.47670 -3.16421 37983 ft 513 kts 42°
2026-05-04 17:34 37.57379 -3.03287 37961 ft 513 kts 41°
2026-05-04 17:35 37.69526 -2.86778 38011 ft 513 kts 43°
2026-05-04 17:36 37.74372 -2.80168 37980 ft 512 kts 43°
2026-05-04 17:36 37.79214 -2.73550 37985 ft 512 kts 43°
2026-05-04 17:37 37.84055 -2.66919 37979 ft 512 kts 43°
2026-05-04 17:37 37.88866 -2.60316 37995 ft 513 kts 43°
2026-05-04 17:38 37.93699 -2.53669 38018 ft 512 kts 43°
2026-05-04 17:38 37.98529 -2.47012 38020 ft 512 kts 43°
2026-05-04 17:39 38.05730 -2.37061 38010 ft 512 kts 43°
2026-05-04 17:39 38.10547 -2.30387 37980 ft 512 kts 43°
2026-05-04 17:40 38.15337 -2.23736 37976 ft 514 kts 43°
2026-05-04 17:40 38.20157 -2.17030 38024 ft 513 kts 43°
2026-05-04 17:41 38.24967 -2.10324 37967 ft 511 kts 43°
2026-05-04 17:41 38.29735 -2.03663 37949 ft 512 kts 44°
2026-05-04 17:42 38.34538 -1.96937 37962 ft 512 kts 44°
2026-05-04 17:42 38.39338 -1.90202 37935 ft 512 kts 44°
2026-05-04 17:43 38.44129 -1.83465 37972 ft 513 kts 44°
2026-05-04 17:43 38.48881 -1.76769 37939 ft 512 kts 44°
2026-05-04 17:44 38.53674 -1.70001 37939 ft 512 kts 44°
2026-05-04 17:44 38.58452 -1.63240 37930 ft 512 kts 44°
2026-05-04 17:45 38.63206 -1.56498 37930 ft 512 kts 44°
2026-05-04 17:45 38.67978 -1.49714 37919 ft 510 kts 44°
2026-05-04 17:46 38.72704 -1.42984 37938 ft 510 kts 44°
2026-05-04 17:46 38.77462 -1.36192 37931 ft 510 kts 44°
2026-05-04 17:47 38.82177 -1.29447 37935 ft 510 kts 44°
2026-05-04 17:47 38.86915 -1.22656 37935 ft 510 kts 44°
2026-05-04 17:48 38.91641 -1.15866 37930 ft 509 kts 45°
2026-05-04 17:48 38.96326 -1.09121 37924 ft 509 kts 45°
2026-05-04 17:49 39.01044 -1.02314 37914 ft 509 kts 45°
2026-05-04 17:49 39.05752 -0.95507 37909 ft 509 kts 45°
2026-05-04 17:50 39.10458 -0.88685 37918 ft 509 kts 45°
2026-05-04 17:50 39.15138 -0.81890 37900 ft 507 kts 45°
2026-05-04 17:51 39.19826 -0.75067 37879 ft 507 kts 45°
2026-05-04 17:51 39.24520 -0.68220 37916 ft 511 kts 45°
2026-05-04 17:52 39.29195 -0.61384 37885 ft 509 kts 45°
2026-05-04 17:52 39.33892 -0.54504 37884 ft 510 kts 45°
2026-05-04 17:53 39.38588 -0.47608 37886 ft 510 kts 46°
2026-05-04 17:53 39.43275 -0.40711 37885 ft 510 kts 46°
2026-05-04 17:54 39.47921 -0.33859 37884 ft 510 kts 46°
2026-05-04 17:54 39.52598 -0.26947 37883 ft 510 kts 46°
2026-05-04 17:55 39.57265 -0.20033 37900 ft 510 kts 46°
2026-05-04 17:55 39.61931 -0.13106 37887 ft 509 kts 46°
2026-05-04 17:56 39.66584 -0.06182 37893 ft 509 kts 46°
2026-05-04 17:56 39.71211 0.00717 37872 ft 509 kts 46°
2026-05-04 17:57 39.75865 0.07674 37896 ft 509 kts 46°
2026-05-04 17:57 39.80515 0.14639 37897 ft 509 kts 46°
2026-05-04 17:58 39.85121 0.21554 37893 ft 508 kts 46°
2026-05-04 17:58 39.89754 0.28526 37893 ft 508 kts 47°
2026-05-04 17:59 39.94383 0.35507 37899 ft 508 kts 47°
2026-05-04 18:00 40.01282 0.45939 37901 ft 507 kts 47°
2026-05-04 18:00 40.05887 0.52924 37905 ft 506 kts 47°
2026-05-04 18:01 40.10445 0.59853 37907 ft 505 kts 47°
2026-05-04 18:01 40.15027 0.66833 37904 ft 505 kts 47°
2026-05-04 18:02 40.21891 0.77320 37877 ft 505 kts 47°
2026-05-04 18:02 40.26436 0.84283 37931 ft 505 kts 48°
2026-05-04 18:03 40.31002 0.91295 37910 ft 505 kts 48°
2026-05-04 18:03 40.35559 0.98307 37913 ft 505 kts 48°
2026-05-04 18:04 40.39348 1.04152 37914 ft 505 kts 48°
2026-05-04 18:05 40.46161 1.14687 37886 ft 505 kts 48°
2026-05-04 18:05 40.51440 1.22877 37917 ft 504 kts 48°
2026-05-04 18:06 40.57461 1.32243 37910 ft 503 kts 48°
2026-05-04 18:06 40.61984 1.39298 37909 ft 503 kts 49°
2026-05-04 18:07 40.66500 1.46357 37921 ft 503 kts 49°
2026-05-04 18:07 40.71011 1.53426 37891 ft 503 kts 49°
2026-05-04 18:08 40.75502 1.60479 37924 ft 504 kts 49°
2026-05-04 18:08 40.80011 1.67579 37918 ft 504 kts 49°
2026-05-04 18:09 40.88984 1.81752 37912 ft 504 kts 49°
2026-05-04 18:10 40.93479 1.88879 37917 ft 502 kts 49°
2026-05-04 18:10 40.97962 1.96002 37912 ft 504 kts 49°
2026-05-04 18:11 41.02433 2.03123 37904 ft 505 kts 49°
2026-05-04 18:11 41.06926 2.10296 37908 ft 505 kts 49°
2026-05-04 18:12 41.11386 2.17432 37931 ft 505 kts 49°
2026-05-04 18:12 41.15859 2.24606 37914 ft 504 kts 49°
2026-05-04 18:13 41.20323 2.31783 37897 ft 504 kts 49°
2026-05-04 18:14 41.27035 2.42606 37927 ft 505 kts 49°
2026-05-04 18:14 41.31484 2.49801 37928 ft 505 kts 49°
2026-05-04 18:15 41.40363 2.64213 37925 ft 504 kts 50°
2026-05-04 18:16 41.44811 2.71459 37920 ft 505 kts 50°
2026-05-04 18:16 41.49270 2.78739 37931 ft 507 kts 50°
2026-05-04 18:17 41.55933 2.89651 37941 ft 506 kts 50°
2026-05-04 18:18 41.62603 3.00614 37932 ft 506 kts 50°
2026-05-04 18:18 41.67013 3.07883 37897 ft 505 kts 50°
2026-05-04 18:19 41.73659 3.18874 37943 ft 506 kts 50°
2026-05-04 18:19 41.78080 3.26207 37923 ft 504 kts 50°
2026-05-04 18:20 41.82468 3.33503 37926 ft 505 kts 50°
2026-05-04 18:20 41.86881 3.40858 37926 ft 505 kts 50°
2026-05-04 18:21 41.91286 3.48218 37920 ft 505 kts 50°
2026-05-04 18:21 41.95655 3.55535 37933 ft 504 kts 51°
2026-05-04 18:22 42.00039 3.62895 37920 ft 503 kts 51°
2026-05-04 18:22 42.04418 3.70265 37919 ft 504 kts 51°
2026-05-04 18:23 42.08763 3.77597 37916 ft 503 kts 51°
2026-05-04 18:23 42.13143 3.85004 37900 ft 503 kts 51°
2026-05-04 18:24 42.17471 3.92342 37913 ft 502 kts 51°
2026-05-04 18:24 42.21827 3.99747 37917 ft 502 kts 51°
2026-05-04 18:25 42.26145 4.07104 37920 ft 502 kts 51°
2026-05-04 18:25 42.30491 4.14528 37925 ft 502 kts 51°
2026-05-04 18:26 42.34826 4.21951 37917 ft 502 kts 51°
2026-05-04 18:26 42.39125 4.29331 37931 ft 502 kts 51°
2026-05-04 18:27 42.43452 4.36777 37925 ft 502 kts 51°
2026-05-04 18:27 42.47742 4.44177 37941 ft 502 kts 51°
2026-05-04 18:28 42.52043 4.51615 37935 ft 502 kts 52°
2026-05-04 18:28 42.56358 4.59096 37921 ft 502 kts 52°
2026-05-04 18:29 42.60641 4.66541 37950 ft 504 kts 52°
2026-05-04 18:29 42.64948 4.74047 37949 ft 503 kts 52°
2026-05-04 18:30 42.71401 4.85326 37957 ft 503 kts 52°
2026-05-04 18:31 42.75673 4.92817 37966 ft 503 kts 52°
2026-05-04 18:31 42.79955 5.00345 37958 ft 503 kts 51°
2026-05-04 18:32 42.84245 5.07907 37967 ft 503 kts 52°
2026-05-04 18:32 42.88526 5.15469 37955 ft 503 kts 52°
2026-05-04 18:33 42.92802 5.23045 37980 ft 503 kts 52°
2026-05-04 18:33 42.97043 5.30578 37972 ft 503 kts 52°
2026-05-04 18:34 43.01312 5.38177 37982 ft 503 kts 52°
2026-05-04 18:34 43.05567 5.45772 37986 ft 502 kts 52°
2026-05-04 18:35 43.09812 5.53372 38010 ft 503 kts 52°
2026-05-04 18:35 43.14034 5.60946 37976 ft 502 kts 52°
2026-05-04 18:36 43.18267 5.68560 38000 ft 502 kts 52°
2026-05-04 18:36 43.22470 5.76141 37995 ft 501 kts 52°
2026-05-04 18:37 43.26674 5.83741 38002 ft 501 kts 52°
2026-05-04 18:37 43.30881 5.91368 38027 ft 499 kts 52°
2026-05-04 18:38 43.35039 5.98927 38014 ft 498 kts 52°
2026-05-04 18:38 43.39227 6.06558 37997 ft 498 kts 52°
2026-05-04 18:39 43.43396 6.14175 38028 ft 499 kts 52°
2026-05-04 18:39 43.47546 6.21775 38033 ft 498 kts 52°
2026-05-04 18:40 43.51696 6.29397 38017 ft 496 kts 52°
2026-05-04 18:40 43.55838 6.37023 38023 ft 497 kts 52°
2026-05-04 18:41 43.59979 6.44667 38039 ft 496 kts 52°
2026-05-04 18:41 43.64083 6.52264 38038 ft 497 kts 52°
2026-05-04 18:42 43.68215 6.59932 38025 ft 494 kts 52°
2026-05-04 18:42 43.72317 6.67563 38043 ft 495 kts 52°
2026-05-04 18:43 43.76420 6.75216 38061 ft 495 kts 52°
2026-05-04 18:43 43.80517 6.82877 38049 ft 495 kts 52°
2026-05-04 18:44 43.84581 6.90498 38063 ft 493 kts 52°
2026-05-04 18:44 43.88649 6.98148 38057 ft 492 kts 52°
2026-05-04 18:45 43.92713 7.05807 38060 ft 492 kts 52°
2026-05-04 18:45 43.96742 7.13422 38063 ft 492 kts 52°
2026-05-04 18:46 44.00790 7.21092 38088 ft 492 kts 52°
2026-05-04 18:46 44.04831 7.28764 38049 ft 490 kts 52°
2026-05-04 18:47 44.08835 7.36396 38088 ft 490 kts 52°
2026-05-04 18:47 44.12852 7.44069 38069 ft 490 kts 52°
2026-05-04 18:48 44.16856 7.51737 38112 ft 490 kts 53°
2026-05-04 18:48 44.20863 7.59429 38108 ft 490 kts 53°
2026-05-04 18:49 44.24855 7.67114 38087 ft 487 kts 53°
2026-05-04 18:49 44.28832 7.74790 38088 ft 487 kts 53°
2026-05-04 18:50 44.32797 7.82463 38010 ft 486 kts 53°
2026-05-04 18:50 44.34781 7.86311 37018 ft 492 kts 53°
2026-05-04 18:50 44.36794 7.90220 36020 ft 499 kts 53°
2026-05-04 18:50 44.38818 7.94155 35418 ft 496 kts 53°
2026-05-04 18:51 44.40146 7.96741 35201 ft 494 kts 53°
2026-05-04 18:51 44.42151 8.00647 34889 ft 493 kts 53°
2026-05-04 18:51 44.44795 8.05809 34250 ft 489 kts 53°
2026-05-04 18:51 44.46770 8.09670 33565 ft 486 kts 53°
2026-05-04 18:52 44.48102 8.12277 33097 ft 486 kts 53°
2026-05-04 18:52 44.50038 8.16070 32542 ft 483 kts 53°
2026-05-04 18:52 44.51981 8.19883 32082 ft 477 kts 53°
2026-05-04 18:52 44.53905 8.23661 31628 ft 473 kts 53°
2026-05-04 18:53 44.55815 8.27418 31113 ft 470 kts 53°
2026-05-04 18:53 44.57709 8.31148 30585 ft 468 kts 54°
2026-05-04 18:53 44.59596 8.34870 30037 ft 466 kts 53°
2026-05-04 18:53 44.61470 8.38569 29480 ft 463 kts 53°
2026-05-04 18:54 44.63326 8.42240 28980 ft 459 kts 53°
2026-05-04 18:54 44.65144 8.45839 28530 ft 454 kts 54°
2026-05-04 18:54 44.66959 8.49436 28047 ft 450 kts 54°
2026-05-04 18:54 44.68763 8.53018 27590 ft 446 kts 54°
2026-05-04 18:55 44.70548 8.56563 27124 ft 442 kts 54°
2026-05-04 18:55 44.74082 8.63598 26223 ft 435 kts 54°
2026-05-04 18:55 44.75791 8.67006 25769 ft 431 kts 55°
2026-05-04 18:56 44.77516 8.70450 25343 ft 427 kts 55°
2026-05-04 18:56 44.79230 8.73877 24904 ft 424 kts 55°
2026-05-04 18:56 44.80925 8.77270 24461 ft 421 kts 56°
2026-05-04 18:56 44.82603 8.80632 24036 ft 418 kts 56°
2026-05-04 18:57 44.84249 8.83934 23613 ft 415 kts 56°
2026-05-04 18:57 44.85907 8.87263 23115 ft 413 kts 56°
2026-05-04 18:57 44.87549 8.90564 22681 ft 409 kts 56°
2026-05-04 18:57 44.89176 8.93838 22258 ft 405 kts 56°
2026-05-04 18:58 44.90784 8.97079 21853 ft 401 kts 56°
2026-05-04 18:58 44.92376 9.00291 21442 ft 397 kts 56°
2026-05-04 18:58 44.93952 9.03474 21036 ft 394 kts 56°
2026-05-04 18:58 44.95500 9.06605 20630 ft 392 kts 56°
2026-05-04 18:59 44.97055 9.09751 20231 ft 389 kts 56°
2026-05-04 18:59 44.98602 9.12886 19838 ft 387 kts 56°
2026-05-04 18:59 45.00136 9.15998 19438 ft 385 kts 56°
2026-05-04 18:59 45.01666 9.19106 19047 ft 383 kts 56°
2026-05-04 19:00 45.03189 9.22203 18639 ft 382 kts 55°
2026-05-04 19:00 45.04699 9.25277 18236 ft 380 kts 55°
2026-05-04 19:00 45.06203 9.28342 17806 ft 378 kts 55°
2026-05-04 19:00 45.07511 9.31474 17471 ft 372 kts 69°
2026-05-04 19:01 45.08142 9.34983 17111 ft 367 kts 81°
2026-05-04 19:01 45.08584 9.38552 16633 ft 367 kts 81°
2026-05-04 19:01 45.09008 9.42107 16218 ft 364 kts 82°
2026-05-04 19:01 45.09413 9.45601 15842 ft 355 kts 82°
2026-05-04 19:02 45.09803 9.49016 15476 ft 347 kts 82°
2026-05-04 19:02 45.10178 9.52331 15120 ft 340 kts 82°
2026-05-04 19:02 45.10545 9.55600 14767 ft 333 kts 82°
2026-05-04 19:02 45.10908 9.58831 14419 ft 329 kts 82°
2026-05-04 19:03 45.11264 9.62016 14077 ft 324 kts 82°
2026-05-04 19:03 45.11615 9.65158 13758 ft 319 kts 82°
2026-05-04 19:03 45.11955 9.68215 13602 ft 319 kts 82°
2026-05-04 19:03 45.12492 9.71260 13350 ft 320 kts 65°
2026-05-04 19:04 45.13852 9.73714 12976 ft 319 kts 37°
2026-05-04 19:04 45.15812 9.75139 12656 ft 316 kts 19°
2026-05-04 19:04 45.17862 9.76286 12338 ft 316 kts 21°
2026-05-04 19:04 45.19882 9.77456 11987 ft 317 kts 21°
2026-05-04 19:05 45.21939 9.78632 11462 ft 322 kts 21°
2026-05-04 19:05 45.24041 9.79837 10910 ft 328 kts 22°
2026-05-04 19:05 45.26174 9.81063 10386 ft 332 kts 22°
2026-05-04 19:05 45.28327 9.82301 9843 ft 337 kts 22°
2026-05-04 19:06 45.30516 9.83561 9237 ft 341 kts 22°
2026-05-04 19:06 45.32694 9.84907 8738 ft 342 kts 26°
2026-05-04 19:06 45.34804 9.86326 8372 ft 327 kts 26°
2026-05-04 19:06 45.36813 9.87666 8097 ft 311 kts 26°
2026-05-04 19:07 45.38734 9.88943 7801 ft 298 kts 26°
2026-05-04 19:07 45.40576 9.90167 7492 ft 289 kts 26°
2026-05-04 19:07 45.42376 9.91362 7204 ft 288 kts 26°
2026-05-04 19:07 45.44189 9.92566 6897 ft 286 kts 26°
2026-05-04 19:08 45.45985 9.93760 6596 ft 281 kts 26°
2026-05-04 19:08 45.47731 9.94922 6283 ft 272 kts 26°
2026-05-04 19:08 45.49419 9.96012 5999 ft 261 kts 20°
2026-05-04 19:08 45.51174 9.96319 5691 ft 251 kts 356°
2026-05-04 19:09 45.52893 9.96216 5417 ft 242 kts 358°
2026-05-04 19:09 45.54542 9.96144 5211 ft 232 kts 358°
2026-05-04 19:09 45.56136 9.96071 5000 ft 230 kts 358°
2026-05-04 19:09 45.57709 9.95996 4718 ft 223 kts 358°
2026-05-04 19:10 45.59247 9.95920 4452 ft 217 kts 358°
2026-05-04 19:10 45.60707 9.95721 4168 ft 209 kts 342°
2026-05-04 19:10 45.61900 9.94627 3886 ft 204 kts 311°
2026-05-04 19:10 45.62647 9.92933 3633 ft 199 kts 293°
2026-05-04 19:11 45.63055 9.91084 3394 ft 193 kts 284°
2026-05-04 19:11 45.63368 9.89233 3148 ft 190 kts 285°
2026-05-04 19:11 45.63686 9.87454 2899 ft 182 kts 285°
2026-05-04 19:11 45.64002 9.85743 2693 ft 175 kts 285°
2026-05-04 19:12 45.64310 9.84079 2457 ft 167 kts 285°
2026-05-04 19:12 45.64846 9.81133 2089 ft 145 kts 286°
2026-05-04 19:12 45.65099 9.79776 1850 ft 142 kts 285°
2026-05-04 19:13 45.65356 9.78411 1665 ft 143 kts 285°
2026-05-04 19:13 45.65609 9.77029 1463 ft 142 kts 285°
2026-05-04 19:13 45.65867 9.75663 1270 ft 141 kts 285°
2026-05-04 19:13 45.66114 9.74306 1091 ft 141 kts 284°
2026-05-04 19:14 45.66365 9.72963 890 ft 136 kts 284°
2026-05-04 19:14 45.66596 9.71698 782 ft 122 kts 284°
2026-05-04 19:14 45.66779 9.70683 788 ft 87 kts 284°
2026-05-04 19:14 45.66880 9.70131 795 ft 41 kts 286°
2026-05-04 19:15 45.66927 9.69896 796 ft 3 kts 285°
2026-05-04 19:15 45.66928 9.69879 796 ft 0 kts 251°
2026-05-04 19:15 45.66927 9.69878 796 ft 0 kts 231°
2026-05-04 19:15 45.66902 9.69871 796 ft 14 kts 179°
2026-05-04 19:16 45.66839 9.69877 794 ft 0 kts 206°
2026-05-04 19:16 45.66838 9.69877 794 ft 0 kts 206°
2026-05-04 19:16 45.66834 9.69874 794 ft 1 kts 210°
2026-05-04 19:16 45.66817 9.69857 794 ft 4 kts 216°
2026-05-04 19:17 45.66797 9.69846 794 ft 5 kts 199°
2026-05-04 19:17 45.66757 9.69827 794 ft 7 kts 197°
2026-05-04 19:17 45.66699 9.69804 794 ft 7 kts 195°
2026-05-04 19:17 45.66692 9.69801 794 ft 1 kts 192°
2026-05-04 19:18 45.66686 9.69800 794 ft 1 kts 191°
2026-05-04 19:18 45.66679 9.69798 794 ft 0 kts 194°
2026-05-04 19:18 45.66678 9.69797 794 ft 0 kts 194°
2026-05-04 19:18 45.66677 9.69797 794 ft 0 kts 194°